Time,TemperatureF,DewpointF,PressureIn,WindDirection,WindDirectionDegrees,WindSpeedMPH,WindSpeedGustMPH,Humidity,HourlyPrecipIn,Conditions,Clouds,dailyrainin,SoftwareType,DateUTC
2013-12-16 00:22:00,38.0,22.0,30.00,South,188,0.0,0.0,53,0.00,,,0.00,,2013-12-16 06:22:00,
2013-12-16 00:42:00,36.0,21.0,29.99,South,188,0.0,0.0,55,0.00,,,0.00,,2013-12-16 06:42:00,
2013-12-16 00:52:00,37.0,23.0,29.99,South,188,0.0,0.0,56,0.00,,,0.00,,2013-12-16 06:52:00,
2013-12-16 01:22:00,37.0,22.0,29.99,SW,219,0.0,0.0,55,0.00,,,0.00,,2013-12-16 07:22:00,
2013-12-16 01:52:00,37.0,22.0,29.98,SW,219,0.0,1.0,55,0.00,,,0.00,,2013-12-16 07:52:00,
2013-12-16 02:22:00,36.0,22.0,29.98,SW,219,0.0,0.0,56,0.00,,,0.00,,2013-12-16 08:22:00,
2013-12-16 02:42:00,35.0,22.0,29.98,SW,219,0.0,1.0,58,0.00,,,0.00,,2013-12-16 08:42:00,
2013-12-16 02:52:00,34.0,22.0,30.01,SW,219,0.0,1.0,60,0.00,,,0.00,,2013-12-16 08:52:00,
2013-12-16 03:11:00,35.0,23.0,30.01,SW,219,0.0,1.0,60,0.00,,,0.00,,2013-12-16 09:11:00,
2013-12-16 03:22:00,35.0,23.0,30.01,SW,218,0.0,1.0,60,0.00,,,0.00,,2013-12-16 09:22:00,
2013-12-16 03:43:00,35.0,22.0,30.01,SW,218,0.0,0.0,59,0.00,,,0.00,,2013-12-16 09:43:00,
2013-12-16 03:53:00,36.0,23.0,30.01,SW,219,0.0,0.0,58,0.00,,,0.00,,2013-12-16 09:53:00,
2013-12-16 04:12:00,35.0,22.0,30.02,SW,219,0.0,1.0,58,0.00,,,0.00,,2013-12-16 10:12:00,
2013-12-16 04:23:00,34.0,22.0,30.02,SW,218,0.0,1.0,60,0.00,,,0.00,,2013-12-16 10:23:00,
2013-12-16 04:43:00,34.0,22.0,30.01,SW,218,0.0,0.0,62,0.00,,,0.00,,2013-12-16 10:43:00,
2013-12-16 04:52:00,34.0,22.0,30.01,SW,219,0.0,0.0,61,0.00,,,0.00,,2013-12-16 10:52:00,
2013-12-16 05:22:00,34.0,22.0,30.01,SW,219,0.0,1.0,60,0.00,,,0.00,,2013-12-16 11:22:00,
2013-12-16 05:42:00,34.0,22.0,30.01,SW,218,0.0,1.0,62,0.00,,,0.00,,2013-12-16 11:42:00,
2013-12-16 05:52:00,33.0,22.0,30.01,SW,218,0.0,0.0,63,0.00,,,0.00,,2013-12-16 11:52:00,
2013-12-16 06:21:00,34.0,22.0,30.01,SW,219,0.0,1.0,62,0.00,,,0.00,,2013-12-16 12:21:00,
2013-12-16 06:42:00,34.0,22.0,30.01,SW,219,0.0,0.0,61,0.00,,,0.00,,2013-12-16 12:42:00,
2013-12-16 06:52:00,33.0,21.0,30.01,SW,219,0.0,0.0,62,0.00,,,0.00,,2013-12-16 12:52:00,
2013-12-16 07:11:00,32.0,21.0,30.01,SW,219,0.0,0.0,63,0.00,,,0.00,,2013-12-16 13:11:00,
2013-12-16 07:21:00,32.0,21.0,30.02,SW,219,0.0,0.0,63,0.00,,,0.00,,2013-12-16 13:21:00,
2013-12-16 07:42:00,32.0,20.0,30.02,SW,219,0.0,0.0,62,0.00,,,0.00,,2013-12-16 13:42:00,
2013-12-16 07:52:00,30.0,20.0,30.03,SW,219,0.0,0.0,65,0.00,,,0.00,,2013-12-16 13:52:00,
2013-12-16 08:12:00,30.0,20.0,30.03,SW,219,0.0,0.0,66,0.00,,,0.00,,2013-12-16 14:12:00,
2013-12-16 08:22:00,29.0,19.0,30.04,SW,219,0.0,1.0,67,0.00,,,0.00,,2013-12-16 14:22:00,
2013-12-16 08:42:00,29.0,20.0,30.04,SW,219,0.0,0.0,69,0.00,,,0.00,,2013-12-16 14:42:00,
2013-12-16 08:52:00,31.0,22.0,30.04,SW,219,0.0,0.0,69,0.00,,,0.00,,2013-12-16 14:52:00,
2013-12-16 09:21:00,35.0,23.0,30.05,West,259,0.0,2.0,60,0.00,,,0.00,,2013-12-16 15:21:00,
2013-12-16 09:54:00,38.0,24.0,30.05,WSW,252,0.0,1.0,56,0.00,,,0.00,,2013-12-16 15:54:00,
2013-12-16 10:23:00,42.0,26.0,30.06,WSW,246,0.0,1.0,52,0.00,,,0.00,,2013-12-16 16:23:00,
2013-12-16 10:52:00,47.0,27.0,30.06,WSW,244,0.0,2.0,46,0.00,,,0.00,,2013-12-16 16:52:00,
2013-12-16 11:22:00,51.0,28.0,30.06,NW,316,0.0,5.0,40,0.00,,,0.00,,2013-12-16 17:22:00,
2013-12-16 11:52:00,53.0,29.0,30.06,NW,323,0.0,3.0,39,0.00,,,0.00,,2013-12-16 17:52:00,
2013-12-16 12:22:00,54.0,28.0,30.06,NNW,336,1.0,5.0,37,0.00,,,0.00,,2013-12-16 18:22:00,
2013-12-16 12:42:00,56.0,29.0,30.05,NW,315,2.0,6.0,36,0.00,,,0.00,,2013-12-16 18:42:00,
2013-12-16 12:52:00,58.0,30.0,30.05,NW,326,3.0,7.0,34,0.00,,,0.00,,2013-12-16 18:52:00,
2013-12-16 13:11:00,59.0,30.0,30.04,NW,318,2.0,9.0,33,0.00,,,0.00,,2013-12-16 19:11:00,
2013-12-16 13:21:00,60.0,29.0,30.04,NNW,341,3.0,6.0,31,0.00,,,0.00,,2013-12-16 19:21:00,
2013-12-16 13:42:00,60.0,29.0,30.03,NW,307,3.0,12.0,31,0.00,,,0.00,,2013-12-16 19:42:00,
2013-12-16 13:52:00,61.0,30.0,30.02,NNW,330,1.0,5.0,31,0.00,,,0.00,,2013-12-16 19:52:00,
2013-12-16 14:11:00,61.0,30.0,30.01,NW,325,1.0,4.0,31,0.00,,,0.00,,2013-12-16 20:11:00,
2013-12-16 14:22:00,62.0,30.0,30.01,NNW,341,2.0,5.0,30,0.00,,,0.00,,2013-12-16 20:22:00,
2013-12-16 14:42:00,63.0,31.0,30.01,NW,315,1.0,5.0,30,0.00,,,0.00,,2013-12-16 20:42:00,
2013-12-16 14:53:00,63.0,30.0,30.01,NNW,329,1.0,6.0,29,0.00,,,0.00,,2013-12-16 20:53:00,
2013-12-16 15:22:00,62.0,30.0,30.01,NW,313,0.0,3.0,30,0.00,,,0.00,,2013-12-16 21:22:00,
2013-12-16 15:43:00,63.0,30.0,30.01,NW,314,1.0,1.0,29,0.00,,,0.00,,2013-12-16 21:43:00,
2013-12-16 15:54:00,63.0,30.0,30.02,North,360,1.0,3.0,29,0.00,,,0.00,,2013-12-16 21:54:00,
2013-12-16 16:23:00,63.0,30.0,30.02,NW,313,0.0,1.0,29,0.00,,,0.00,,2013-12-16 22:23:00,
2013-12-16 16:43:00,63.0,29.0,30.03,NW,313,0.0,1.0,28,0.00,,,0.00,,2013-12-16 22:43:00,
2013-12-16 16:53:00,63.0,30.0,30.03,NW,306,0.0,1.0,29,0.00,,,0.00,,2013-12-16 22:53:00,
2013-12-16 17:22:00,59.0,28.0,30.03,NW,306,0.0,0.0,31,0.00,,,0.00,,2013-12-16 23:22:00,